Penticton, British Columbia

12:29 PM PDT on July 24, 2016 (GMT -0700)
Penticton

Weather History for CYYF - July, 2013

Change the Weather History Date:

Monday, July 1, 2013

  Actual Average Record
Temperature  
Mean Temperature 74 °F -  
Max Temperature 90 °F 83 °F 95 °F (2006)
Min Temperature 59 °F 54 °F 35 °F (2012)
Cooling Degree Days 10    
Growing Degree Days 24 (Base 50)    
Moisture  
Dew Point 62 °F    
Average Humidity 63    
Maximum Humidity 88    
Minimum Humidity 32    
Precipitation  
Precipitation 0.00 in 0.03 in - ()
Sea Level Pressure  
Sea Level Pressure 29.97 in    
Wind  
Wind Speed 4 mph ()    
Max Wind Speed 10 mph    
Max Gust Speed -    
Visibility 15.0 miles    
Events      
Averages and records for this station are not official NWS values.
T = Trace of Precipitation, MM = Missing Value Source: Averaged Metar Reports

Daily Weather History Graph

Daily Weather History Graph

Search for Another Location

Airport or City:

Trip Planner

Search our weather history database for the weather conditions in past years. The results will help you decide how hot, cold, wet, or windy it might be!

Date:

Astronomy

Jul. 01, 2013 Rise Set
Actual Time 4:56 AM PDT 9:08 PM PDT
Civil Twilight 4:13 AM PDT 9:51 PM PDT
Nautical Twilight 3:11 AM PDT 10:52 PM PDT
Astronomical Twilight 1:34 AM PDT 12:30 AM PDT
Moon 12:51 AM PDT (7/1) 3:09 PM PDT (7/1)
Length of Visible Light 17h 38m
Length of Day
16h 11m
Waning Crescent, 34% of the Moon is Illuminated
Jul 1
Waning Crescent
Jul 8
New
Jul 15
First Quarter
Jul 22
Full
Jul 29
Last Quarter

Hourly Weather History & Observations

Time (PDT) Temp. Heat Index Dew Point Humidity Pressure Visibility Wind Dir Wind Speed Gust Speed Precip Events Conditions
12:00 AM 68.0 °F - 62.6 °F 83% 29.99 in 15.0 mi Calm Calm - N/A   Clear
1:00 AM 66.2 °F - 59.0 °F 78% 30.01 in 15.0 mi West 2.3 mph - N/A   Clear
2:00 AM 64.4 °F - 57.2 °F 77% 30.01 in 15.0 mi North 3.5 mph - N/A   Clear
3:00 AM 62.6 °F - 57.2 °F 82% 30.02 in 15.0 mi NW 3.5 mph - N/A   Clear
4:00 AM 60.8 °F - 57.2 °F 88% 30.04 in 15.0 mi NE 2.3 mph - N/A   Clear
5:00 AM 61 °F - 56 °F 79% 30.04 in 15 mi North 2.3 mph - -  
5:00 AM 60.8 °F - 55.4 °F 82% 30.04 in 15.0 mi North 4.6 mph - N/A   Clear
6:00 AM 62.6 °F - 59.0 °F 88% 30.06 in 15.0 mi North 6.9 mph - N/A   Clear
7:00 AM 69.8 °F - 59.0 °F 68% 30.06 in 15.0 mi NNW 9.2 mph - N/A   Clear
8:00 AM 73.4 °F - 59.0 °F 61% 30.06 in 15.0 mi North 5.8 mph - N/A   Clear
9:00 AM 75.2 °F - 60.8 °F 61% 30.05 in 15.0 mi NNW 8.1 mph - N/A   Clear
10:00 AM 78.8 °F - 62.6 °F 57% 30.04 in 15.0 mi North 6.9 mph - N/A   Clear
11:00 AM 81 °F - 62 °F 43% 30.03 in 15 mi North 5.8 mph - -  
11:00 AM 80.6 °F 81.8 °F 62.6 °F 54% 30.03 in 15.0 mi North 5.8 mph - N/A   Clear
12:00 PM 82.4 °F 83.4 °F 62.6 °F 51% 30.00 in 15.0 mi North 9.2 mph - N/A   Partly Cloudy
1:00 PM 82.4 °F 82.9 °F 60.8 °F 48% 29.99 in 15.0 mi NNW 6.9 mph - N/A   Scattered Clouds
2:00 PM 86.0 °F 86.6 °F 62.6 °F 45% 29.97 in 15.0 mi NNE 3.5 mph - N/A   Mostly Cloudy
3:00 PM 84.2 °F 85.0 °F 62.6 °F 48% 29.96 in 15.0 mi North 6.9 mph - N/A   Mostly Cloudy
4:00 PM 87.8 °F 89.4 °F 64.4 °F 46% 29.93 in 15.0 mi North 3.5 mph - N/A   Scattered Clouds
5:00 PM 89 °F - 63 °F 32% 29.90 in 15 mi North 10.4 mph - -   Scattered Clouds
5:00 PM 89.6 °F 90.1 °F 62.6 °F 40% 29.90 in 15.0 mi North 10.4 mph - N/A   Partly Cloudy
6:00 PM 87.8 °F 89.4 °F 64.4 °F 46% 29.88 in 15.0 mi North 6.9 mph - N/A   Scattered Clouds
7:00 PM 86.0 °F 86.1 °F 60.8 °F 43% 29.86 in 15.0 mi NNW 8.1 mph - N/A   Partly Cloudy
8:00 PM 84.2 °F 87.3 °F 68.0 °F 58% 29.86 in 15.0 mi North 4.6 mph - N/A   Scattered Clouds
9:00 PM 77.0 °F - 66.2 °F 69% 29.86 in 15.0 mi Calm Calm - N/A   Partly Cloudy
10:00 PM 75.2 °F - 66.2 °F 73% 29.87 in 15.0 mi Calm Calm - N/A   Partly Cloudy
11:00 PM 70 °F - 64 °F 75% 29.89 in 15 mi NNW 1.2 mph - -   Scattered Clouds
11:00 PM 69.8 °F - 64.4 °F 83% 29.88 in 15.0 mi Calm Calm - N/A   Partly Cloudy